{"data":{"norad_id":58186,"epoch":"2026-05-25T03:54:46.294848Z","epoch_age_seconds":67873,"freshness":"FRESH","line1":"1 58186U 23167M   26145.16303582  .00000887  00000+0  41764-4 0  9991","line2":"2 58186  43.0014  71.2622 0000923 259.9800 100.0948 15.27565957142684","mean_motion":15.27565957,"eccentricity":9.23e-5,"inclination_deg":43.0014,"raan_deg":71.2622,"arg_perigee_deg":259.98,"mean_anomaly_deg":100.0948,"bstar":4.1764e-5,"rev_number":14268,"period_min":94.267615313189,"perigee_km":482.45785479784,"apogee_km":483.72443751362,"semimajor_km":6861.2281461557,"source":"CELESTRAK","updated_at":"2026-05-25T13:38:18.570949Z"}}